Location: Newark
(21.1200°N, 73.4000°E)
Time: 00:57:41
(UTC+00:00)

Vanguard 1 Rocket - Pass Details

Date: 27 January 2020
Orbit: 650 x 4226 km, 34.3° (Epoch: 20 February)

Event Time Altitude Azimuth Distance (km) Brightness Sun altitude
Rises 00:30:54 0° 194° (SSW) 2,946 10.0 -17.4°
Reaches altitude 10° 00:34:25 10° 162° (SSE) 2,087 9.7 -16.6°
Maximum altitude 00:36:24 13° 136° (SE) 2,011 10.0 -16.2°
Drops below altitude 10° 00:38:35 10° 110° (ESE) 2,340 10.9 -15.7°
Sets 00:43:07 0° 82° (E) 3,737 11.9 -14.6°
